EW8182 Weather Reports


Display with metric or nautical units.
time (UTC)temp
F
wind
direction
speed
MPH
gust
MPH
rain 1hr
in
rain 24hr
in
rain mn
in
humidity
%
barometer
mb
20190321061450 44 239 5.0 15.0 0.02 0.02 0.02 91 1013.2
20190321060950 44 248 5.0 15.0 0.01 0.01 0.01 90 1013.3
20190321060450 44 242 3.0 9.0 0.01 0.01 0.01 90 1013.2
20190321055949 44 238 3.0 7.0 0.01 0.01 0.01 90 1013.2
20190321055450 44 239 2.0 7.0 0.01 0.01 0.01 89 1013.1
20190321054950 44 237 2.0 13.0 0.01 0.01 0.01 89 1013.1
20190321054449 45 237 3.0 13.0 0.01 0.01 0.01 89 1013.1
20190321053947 45 236 4.0 10.0 0.01 0.01 0.01 89 1013.1
20190321053447 45 210 4.0 11.0 0.01 0.01 0.01 88 1013.2
20190321052948 45 227 3.0 11.0 0.01 0.01 0.01 88 1013.2
20190321052447 45 233 4.0 7.0 0.01 0.01 0.01 88 1013.3
20190321051947 45 220 3.0 7.0 0.00 0.00 0.00 88 1013.4
20190321051446 45 242 2.0 4.0 0.00 0.00 0.00 88 1013.3
20190321050945 45 243 3.0 7.0 0.00 0.00 0.00 87 1013.4
20190321050445 45 243 4.0 7.0 0.00 0.00 0.00 87 1013.5
20190321045945 45 242 4.0 7.0 0.00 0.00 0.00 86 1013.6
20190321045459 45 227 3.0 8.0 0.00 0.00 0.00 86 1013.7
20190321044943 45 242 3.0 8.0 0.00 0.00 0.00 85 1013.7
20190321044443 46 238 4.0 8.0 0.00 0.00 0.00 84 1013.7
20190321043942 46 239 4.0 8.0 0.00 0.00 0.00 84 1013.8
20190321043443 46 240 3.0 8.0 0.00 0.00 0.00 84 1013.7
20190321042943 46 238 3.0 8.0 0.00 0.00 0.00 84 1013.9
20190321042443 46 237 3.0 8.0 0.00 0.00 0.00 83 1013.9
20190321041943 46 241 2.0 8.0 0.00 0.00 0.00 83 1013.8
20190321041443 46 248 1.0 6.0 0.00 0.00 0.00 83 1013.8
20190321040942 46 230 1.0 3.0 0.00 0.00 0.00 82 1013.8
20190321040442 46 230 1.0 4.0 0.00 0.00 0.00 82 1013.8
20190321035941 46 240 1.0 7.0 0.00 0.00 0.00 81 1013.8
20190321035441 46 237 2.0 7.0 0.00 0.00 0.00 81 1013.9
20190321034941 46 234 2.0 5.0 0.00 0.00 0.00 81 1013.9
20190321034441 46 234 2.0 5.0 0.00 0.00 0.00 80 1013.9
20190321033941 47 238 1.0 5.0 0.00 0.00 0.00 80 1014.0
20190321033441 47 241 1.0 4.0 0.00 0.00 0.00 79 1014.1
20190321032941 47 259 1.0 4.0 0.00 0.00 0.00 79 1014.1
20190321032441 47 229 1.0 4.0 0.00 0.00 0.00 78 1014.0
20190321031938 47 265 1.0 5.0 0.00 0.00 0.00 78 1014.0
20190321031440 47 246 1.0 5.0 0.00 0.00 0.00 78 1014.1
20190321030939 47 250 1.0 3.0 0.00 0.00 0.00 77 1014.1
20190321030439 47 251 1.0 4.0 0.00 0.00 0.00 76 1014.1
20190321025938 47 242 1.0 5.0 0.00 0.00 0.00 75 1014.1
20190321025439 48 248 1.0 5.0 0.00 0.00 0.00 74 1014.0
20190321024939 48 203 1.0 4.0 0.00 0.00 0.00 73 1014.0
20190321024438 48 242 1.0 4.0 0.00 0.00 0.00 72 1014.0
20190321023938 48 240 1.0 8.0 0.00 0.00 0.00 71 1014.1
20190321023439 48 236 1.0 8.0 0.00 0.00 0.00 69 1014.0
20190321022937 48 236 2.0 8.0 0.00 0.00 0.00 67 1014.1
20190321022437 48 259 2.0 8.0 0.00 0.00 0.00 67 1014.1
20190321021937 49 242 1.0 3.0 0.00 0.00 0.00 64 1014.1
20190321021436 49 242 1.0 3.0 0.00 0.00 0.00 63 1014.1
20190321020936 49 241 0.0 2.0 0.00 0.00 0.00 62 1014.1
20190321020437 49 241 0.0 2.0 0.00 0.00 0.00 61 1014.1
20190321015937 49 241 0.0 2.0 0.00 0.00 0.00 59 1014.1
20190321015437 49 242 0.0 2.0 0.00 0.00 0.00 58 1014.0
20190321014937 50 241 1.0 5.0 0.00 0.00 0.00 57 1013.9
20190321014436 50 227 1.0 5.0 0.00 0.00 0.00 55 1013.9
20190321013936 50 190 1.0 3.0 0.00 0.00 0.00 54 1013.8
20190321013437 50 306 1.0 3.0 0.00 0.00 0.00 53 1013.8
20190321012937 51 234 1.0 4.0 0.00 0.00 0.00 51 1013.9
20190321012436 51 256 1.0 5.0 0.00 0.00 0.00 49 1013.9
20190321011936 51 217 1.0 5.0 0.00 0.00 0.00 46 1013.8
20190321011436 52 196 2.0 3.0 0.00 0.00 0.00 42 1013.8
20190321010937 52 197 2.0 3.0 0.00 0.00 0.00 40 1013.6
20190321010436 52 197 1.0 3.0 0.00 0.00 0.00 40 1013.5
20190321005936 52 197 1.0 2.0 0.00 0.00 0.00 41 1013.5
20190321005437 52 196 1.0 2.0 0.00 0.00 0.00 41 1013.6
20190321004935 52 197 1.0 3.0 0.00 0.00 0.00 41 1013.6
20190321004435 52 197 1.0 3.0 0.00 0.00 0.00 41 1013.5
20190321003934 52 196 1.0 2.0 0.00 0.00 0.00 41 1013.6
20190321003434 52 197 1.0 2.0 0.00 0.00 0.00 43 1013.6
20190321002934 52 197 1.0 2.0 0.00 0.00 0.00 43 1013.6
20190321002434 52 197 1.0 2.0 0.00 0.00 0.00 44 1013.6
20190321001934 52 196 1.0 2.0 0.00 0.00 0.00 43 1013.6
20190321001434 53 197 2.0 3.0 0.00 0.00 0.00 42 1013.7
20190321000934 53 197 2.0 3.0 0.00 0.00 0.00 41 1013.8
20190321000434 53 196 2.0 3.0 0.00 0.00 0.00 42 1013.8
20190320235932 53 197 3.0 3.0 0.00 0.00 0.00 41 1013.7
20190320235432 53 197 3.0 4.0 0.00 0.00 0.00 41 1013.7
20190320234932 53 197 3.0 4.0 0.00 0.00 0.00 42 1013.8
20190320234432 53 198 4.0 5.0 0.00 0.00 0.00 41 1013.8
20190320233932 53 199 4.0 6.0 0.00 0.00 0.00 41 1013.8
20190320233433 53 217 5.0 8.0 0.00 0.00 0.00 41 1013.9
20190320232932 54 195 5.0 8.0 0.00 0.00 0.00 40 1013.8
20190320232432 54 202 6.0 10.0 0.00 0.00 0.00 39 1013.8
20190320231932 54 192 7.0 10.0 0.00 0.00 0.00 38 1013.8
20190320231432 54 194 7.0 10.0 0.00 0.00 0.00 38 1013.9
20190320230930 54 210 7.0 10.0 0.00 0.00 0.00 37 1013.8
20190320230430 54 197 7.0 12.0 0.00 0.00 0.00 38 1013.9
20190320225930 55 208 9.0 16.0 0.00 0.00 0.00 37 1014.0
20190320225429 55 192 10.0 17.0 0.00 0.00 0.00 37 1014.0
20190320224930 55 194 9.0 17.0 0.00 0.00 0.00 36 1014.0
20190320224430 55 213 7.0 14.0 0.00 0.00 0.00 36 1014.0
20190320223930 55 220 6.0 11.0 0.00 0.00 0.00 36 1014.0
20190320223430 55 186 6.0 9.0 0.00 0.00 0.00 37 1014.1
20190320222930 55 207 6.0 10.0 0.00 0.00 0.00 36 1014.1
20190320222430 55 205 7.0 10.0 0.00 0.00 0.00 37 1014.1
20190320221928 55 194 8.0 12.0 0.00 0.00 0.00 36 1014.2
20190320221428 55 219 9.0 15.0 0.00 0.00 0.00 36 1014.2
20190320220928 55 213 8.0 15.0 0.00 0.00 0.00 35 1014.4
20190320220428 55 205 7.0 11.0 0.00 0.00 0.00 36 1014.4
20190320215927 55 206 8.0 12.0 0.00 0.00 0.00 37 1014.4
20190320215428 55 190 8.0 12.0 0.00 0.00 0.00 35 1014.4
20190320214928 55 192 9.0 15.0 0.00 0.00 0.00 34 1014.5
20190320214428 55 211 10.0 15.0 0.00 0.00 0.00 33 1014.5
20190320213927 55 202 9.0 15.0 0.00 0.00 0.00 33 1014.6
20190320213427 56 220 8.0 15.0 0.00 0.00 0.00 35 1014.8
20190320212928 56 214 7.0 15.0 0.00 0.00 0.00 32 1014.8
20190320212428 55 227 7.0 11.0 0.00 0.00 0.00 35 1014.9
20190320211928 55 227 8.0 12.0 0.00 0.00 0.00 35 1014.9
20190320211428 55 195 8.0 12.0 0.00 0.00 0.00 36 1014.9
20190320210927 55 209 8.0 12.0 0.00 0.00 0.00 36 1014.9
20190320210427 55 202 7.0 11.0 0.00 0.00 0.00 36 1014.9
20190320205928 55 157 7.0 14.0 0.00 0.00 0.00 36 1015.0
20190320205428 55 194 8.0 14.0 0.00 0.00 0.00 37 1015.2
20190320204929 55 200 9.0 16.0 0.00 0.00 0.00 35 1015.2
20190320204426 55 211 10.0 16.0 0.00 0.00 0.00 34 1015.3
20190320203926 55 202 10.0 16.0 0.00 0.00 0.00 33 1015.5
20190320203423 55 206 9.0 16.0 0.00 0.00 0.00 34 1015.5
20190320202925 55 217 9.0 17.0 0.00 0.00 0.00 34 1015.5
20190320202424 55 202 11.0 17.0 0.00 0.00 0.00 33 1015.5
20190320201923 55 209 11.0 18.0 0.00 0.00 0.00 33 1015.6
20190320201424 56 211 12.0 18.0 0.00 0.00 0.00 31 1015.7
20190320200923 56 194 11.0 17.0 0.00 0.00 0.00 35 1015.6
20190320200423 56 205 9.0 16.0 0.00 0.00 0.00 37 1015.8
20190320195924 56 202 8.0 16.0 0.00 0.00 0.00 34 1015.9
20190320195424 56 200 8.0 12.0 0.00 0.00 0.00 35 1015.9
20190320194924 56 207 7.0 11.0 0.00 0.00 0.00 36 1016.1
20190320194424 55 213 6.0 10.0 0.00 0.00 0.00 38 1016.4
20190320193923 54 171 7.0 10.0 0.00 0.00 0.00 38 1016.5
20190320193423 54 201 7.0 10.0 0.00 0.00 0.00 40 1016.6
20190320192923 54 191 7.0 11.0 0.00 0.00 0.00 39 1016.6
20190320192424 54 221 7.0 12.0 0.00 0.00 0.00 37 1016.8
20190320191924 54 175 7.0 12.0 0.00 0.00 0.00 38 1016.9
20190320191424 54 209 6.0 11.0 0.00 0.00 0.00 39 1017.1
20190320190923 53 223 6.0 11.0 0.00 0.00 0.00 39 1017.1
20190320190423 53 194 7.0 11.0 0.00 0.00 0.00 39 1017.3
20190320185921 53 229 8.0 12.0 0.00 0.00 0.00 38 1017.6
20190320185421 53 221 9.0 13.0 0.00 0.00 0.00 39 1017.8
20190320184922 53 237 9.0 13.0 0.00 0.00 0.00 38 1017.8
20190320184422 53 202 10.0 17.0 0.00 0.00 0.00 38 1017.9
20190320183920 53 223 11.0 17.0 0.00 0.00 0.00 38 1017.9
20190320183419 54 227 9.0 15.0 0.00 0.00 0.00 38 1018.0
20190320182919 54 207 9.0 16.0 0.00 0.00 0.00 39 1018.1
20190320182419 54 227 9.0 16.0 0.00 0.00 0.00 39 1018.3
20190320181919 54 186 9.0 14.0 0.00 0.00 0.00 37 1018.4
20190320181420 54 194 10.0 18.0 0.00 0.00 0.00 42 1018.5
20190320180919 54 222 9.0 18.0 0.00 0.00 0.00 38 1018.5
20190320180419 54 175 8.0 13.0 0.00 0.00 0.00 38 1018.6
20190320175919 54 233 9.0 16.0 0.00 0.00 0.00 41 1018.8
20190320175419 54 223 9.0 16.0 0.00 0.00 0.00 39 1018.9
20190320174918 53 217 9.0 14.0 0.00 0.00 0.00 38 1019.1
20190320174417 53 171 10.0 16.0 0.00 0.00 0.00 41 1019.1
20190320173917 53 202 10.0 16.0 0.00 0.00 0.00 39 1019.2
20190320173417 52 234 9.0 14.0 0.00 0.00 0.00 40 1019.3
20190320172917 52 195 9.0 14.0 0.00 0.00 0.00 42 1019.4
20190320172417 51 219 10.0 16.0 0.00 0.00 0.00 41 1019.5
20190320171917 51 184 11.0 16.0 0.00 0.00 0.00 42 1019.6
20190320171417 51 205 10.0 14.0 0.00 0.00 0.00 43 1019.7
20190320170917 51 205 10.0 16.0 0.00 0.00 0.00 44 1019.8
20190320170417 50 206 10.0 16.0 0.00 0.00 0.00 43 1019.8
20190320165917 51 237 10.0 14.0 0.00 0.00 0.00 41 1019.9
20190320165415 51 195 10.0 15.0 0.00 0.00 0.00 42 1020.1
20190320164915 51 217 11.0 17.0 0.00 0.00 0.00 43 1020.1
20190320164415 51 211 10.0 17.0 0.00 0.00 0.00 44 1020.2
20190320163915 50 202 10.0 20.0 0.00 0.00 0.00 43 1020.3
20190320163415 50 200 11.0 20.0 0.00 0.00 0.00 42 1020.3
20190320162915 51 173 11.0 17.0 0.00 0.00 0.00 44 1020.3
20190320162415 51 192 9.0 14.0 0.00 0.00 0.00 42 1020.4
20190320161915 51 189 8.0 12.0 0.00 0.00 0.00 45 1020.5
20190320161415 49 179 9.0 16.0 0.00 0.00 0.00 46 1020.5
20190320160915 50 198 9.0 16.0 0.00 0.00 0.00 44 1020.6
20190320160413 50 202 9.0 16.0 0.00 0.00 0.00 49 1020.6
20190320155913 49 203 9.0 16.0 0.00 0.00 0.00 47 1020.8
20190320155412 49 220 8.0 15.0 0.00 0.00 0.00 47 1020.9
20190320154913 49 211 8.0 12.0 0.00 0.00 0.00 48 1020.9
20190320154413 48 215 8.0 12.0 0.00 0.00 0.00 46 1021.0
20190320153913 48 190 8.0 13.0 0.00 0.00 0.00 48 1021.0
20190320153413 48 196 7.0 13.0 0.00 0.00 0.00 47 1021.2
20190320152914 48 198 7.0 12.0 0.00 0.00 0.00 50 1021.2
20190320152412 48 187 7.0 12.0 0.00 0.00 0.00 49 1021.3
20190320151914 48 225 6.0 11.0 0.00 0.00 0.00 48 1021.4
20190320151413 48 182 5.0 10.0 0.00 0.00 0.00 49 1021.5
20190320150913 48 190 5.0 10.0 0.00 0.00 0.00 50 1021.5
20190320150413 47 182 6.0 10.0 0.00 0.00 0.00 50 1021.6
20190320145913 47 194 6.0 10.0 0.00 0.00 0.00 48 1021.5
20190320145412 47 187 6.0 10.0 0.00 0.00 0.00 50 1021.6
20190320144913 47 174 6.0 10.0 0.00 0.00 0.00 50 1021.6
20190320144414 47 199 6.0 9.0 0.00 0.00 0.00 51 1021.7
20190320143913 47 196 5.0 9.0 0.00 0.00 0.00 53 1021.8
20190320143412 46 201 4.0 8.0 0.00 0.00 0.00 55 1021.9
20190320142910 46 199 3.0 8.0 0.00 0.00 0.00 56 1021.9
20190320142411 46 179 2.0 5.0 0.00 0.00 0.00 56 1021.9
20190320141911 45 161 2.0 5.0 0.00 0.00 0.00 58 1022.0
20190320141411 44 159 2.0 6.0 0.00 0.00 0.00 59 1022.0
20190320140911 44 150 2.0 6.0 0.00 0.00 0.00 62 1022.1
20190320140408 43 152 2.0 5.0 0.00 0.00 0.00 62 1022.1
20190320135908 43 144 2.0 5.0 0.00 0.00 0.00 69 1022.1
20190320135409 42 152 2.0 4.0 0.00 0.00 0.00 68 1022.1
20190320134909 41 114 2.0 3.0 0.00 0.00 0.00 77 1022.1
20190320134408 40 115 2.0 3.0 0.00 0.00 0.00 74 1022.1
20190320133908 40 115 2.0 3.0 0.00 0.00 0.00 76 1022.2
20190320133409 39 114 2.0 4.0 0.00 0.00 0.00 77 1022.1
20190320132909 38 115 2.0 4.0 0.00 0.00 0.00 76 1022.2
20190320132408 38 115 2.0 4.0 0.00 0.00 0.00 76 1022.2
20190320131908 37 114 2.0 3.0 0.00 0.00 0.00 76 1022.2
20190320131408 36 114 2.0 3.0 0.00 0.00 0.00 79 1022.1
20190320130908 35 115 2.0 4.0 0.00 0.00 0.00 81 1022.2
20190320130409 34 115 2.0 4.0 0.00 0.00 0.00 81 1022.2
20190320125909 34 114 2.0 3.0 0.00 0.00 0.00 83 1022.3
20190320125408 33 115 1.0 3.0 0.00 0.00 0.00 84 1022.3
20190320124908 32 115 1.0 3.0 0.00 0.00 0.00 87 1022.3
20190320124408 31 115 1.0 3.0 0.00 0.00 0.00 87 1022.3
20190320123908 31 114 1.0 3.0 0.00 0.00 0.00 87 1022.3
20190320123409 30 115 2.0 3.0 0.00 0.00 0.00 87 1022.3
20190320122909 30 115 1.0 3.0 0.00 0.00 0.00 87 1022.3
20190320122408 30 114 2.0 4.0 0.00 0.00 0.00 86 1022.3
20190320121908 30 115 2.0 4.0 0.00 0.00 0.00 86 1022.3
20190320121408 30 136 2.0 3.0 0.00 0.00 0.00 85 1022.3
20190320120908 30 138 2.0 3.0 0.00 0.00 0.00 85 1022.2
20190320120409 30 140 2.0 3.0 0.00 0.00 0.00 85 1022.3
20190320115909 30 140 2.0 3.0 0.00 0.00 0.00 85 1022.4
20190320115408 30 140 1.0 3.0 0.00 0.00 0.00 85 1022.4
20190320114908 30 140 0.0 0.0 0.00 0.00 0.00 85 1022.4
20190320114408 30 140 0.0 0.0 0.00 0.00 0.00 85 1022.4
20190320113908 30 140 0.0 0.0 0.00 0.00 0.00 85 1022.5
20190320113409 30 140 0.0 0.0 0.00 0.00 0.00 85 1022.5
20190320112909 31 140 0.0 0.0 0.00 0.00 0.00 85 1022.5
20190320112408 31 140 0.0 0.0 0.00 0.00 0.00 84 1022.5
20190320111907 31 140 0.0 0.0 0.00 0.00 0.00 84 1022.5
20190320111406 31 140 0.0 0.0 0.00 0.00 0.00 84 1022.5
20190320110906 31 140 0.0 0.0 0.00 0.00 0.00 84 1022.4
20190320110406 31 140 0.0 0.0 0.00 0.00 0.00 84 1022.4
20190320105906 31 140 0.0 0.0 0.00 0.00 0.00 84 1022.4
20190320105406 31 140 0.0 0.0 0.00 0.00 0.00 84 1022.4
20190320104906 31 140 0.0 0.0 0.00 0.00 0.00 84 1022.4
20190320104406 31 140 0.0 0.0 0.00 0.00 0.00 84 1022.4
20190320103906 31 140 0.0 0.0 0.00 0.00 0.00 84 1022.5
20190320103406 31 140 0.0 0.0 0.00 0.00 0.00 84 1022.5
20190320102906 31 140 0.0 0.0 0.00 0.00 0.00 85 1022.5
20190320102405 30 140 0.0 0.0 0.00 0.00 0.00 85 1022.5
20190320101904 30 140 0.0 0.0 0.00 0.00 0.00 85 1022.4
20190320101405 30 140 0.0 0.0 0.00 0.00 0.00 84 1022.4
20190320100904 30 140 0.0 0.0 0.00 0.00 0.00 84 1022.4
20190320100404 30 140 0.0 0.0 0.00 0.00 0.00 85 1022.4
20190320095904 30 140 0.0 0.0 0.00 0.00 0.00 85 1022.4
20190320095404 30 140 0.0 0.0 0.00 0.00 0.00 85 1022.3
20190320094904 30 140 0.0 0.0 0.00 0.00 0.00 85 1022.3
20190320094403 30 140 0.0 0.0 0.00 0.00 0.00 85 1022.3
20190320093903 30 140 0.0 0.0 0.00 0.00 0.00 84 1022.3
20190320093402 31 140 0.0 0.0 0.00 0.00 0.00 83 1022.3
20190320092902 31 140 0.0 0.0 0.00 0.00 0.00 83 1022.3
20190320092402 31 140 0.0 0.0 0.00 0.00 0.00 83 1022.4
20190320091902 31 140 0.0 0.0 0.00 0.00 0.00 83 1022.5
20190320091401 31 140 0.0 0.0 0.00 0.00 0.00 83 1022.4
20190320090901 31 140 0.0 0.0 0.00 0.00 0.00 83 1022.4
20190320090402 31 140 0.0 0.0 0.00 0.00 0.00 83 1022.5
20190320085902 31 140 0.0 0.0 0.00 0.00 0.00 83 1022.5
20190320085402 31 140 0.0 0.0 0.00 0.00 0.00 83 1022.5
20190320084902 31 140 0.0 0.0 0.00 0.00 0.00 83 1022.6
20190320084400 31 140 0.0 0.0 0.00 0.00 0.00 82 1022.7
20190320083859 31 140 1.0 3.0 0.00 0.00 0.00 81 1022.8
20190320083400 31 140 2.0 3.0 0.00 0.00 0.00 81 1022.9
20190320082859 31 140 1.0 3.0 0.00 0.00 0.00 81 1022.9
20190320082359 31 140 1.0 2.0 0.00 0.00 0.00 81 1023.0
20190320081900 31 140 1.0 3.0 0.00 0.00 0.00 81 1023.0
20190320081400 31 140 2.0 3.0 0.00 0.00 0.00 80 1023.1
20190320080900 32 140 2.0 3.0 0.00 0.00 0.00 80 1023.1
20190320080400 32 140 2.0 4.0 0.00 0.00 0.00 79 1023.0
20190320075859 32 140 2.0 5.0 0.00 0.00 0.00 78 1023.1
20190320075357 32 143 2.0 5.0 0.00 0.00 0.00 78 1023.2
20190320074858 33 159 3.0 5.0 0.00 0.00 0.00 76 1023.3
20190320074358 33 159 3.0 5.0 0.00 0.00 0.00 77 1023.5
20190320073857 32 170 2.0 4.0 0.00 0.00 0.00 77 1023.6
20190320073357 33 205 1.0 2.0 0.00 0.00 0.00 76 1023.8
20190320072858 33 205 1.0 2.0 0.00 0.00 0.00 76 1023.8
20190320072358 33 205 1.0 2.0 0.00 0.00 0.00 75 1023.9
20190320071858 33 205 1.0 2.0 0.00 0.00 0.00 74 1024.0
20190320071357 33 205 1.0 2.0 0.00 0.00 0.00 74 1024.1
20190320070857 33 205 1.0 2.0 0.00 0.00 0.00 74 1024.2
20190320070357 33 205 1.0 2.0 0.00 0.00 0.00 74 1024.2
20190320065858 33 205 1.0 2.0 0.00 0.00 0.00 74 1024.2
20190320065358 33 205 1.0 2.0 0.00 0.00 0.00 74 1024.3
20190320064858 33 205 1.0 2.0 0.00 0.00 0.00 73 1024.3
20190320064357 34 205 1.0 2.0 0.00 0.00 0.00 73 1024.3
20190320063855 34 205 1.0 2.0 0.00 0.00 0.00 71 1024.3
20190320063355 34 205 1.0 2.0 0.00 0.00 0.00 71 1024.3
20190320062856 34 205 1.0 2.0 0.00 0.00 0.00 72 1024.3
20190320062356 34 205 1.0 2.0 0.00 0.00 0.00 72 1024.4
20190320061855 34 205 1.0 2.0 0.00 0.00 0.00 72 1024.3